Wind_Speed
13 11 10 10 10 10 9 7 5 5 4 4 5 3 2 3 4 6 7 9 9 11 13 16 16 18 21 17 17 20 21 28 30 15 20 28 31 31 27 25 22 21 19
14 13 13 12 11 11 10 8 6 5 4 4 5 5 3 1 3 5 7 9 9 13 14 17 20 20 18 17 19 24 30 26 40 26 20 24 28 28 28 27 25 22 19
15 15 14 12 12 12 11 9 7 6 5 5 5 6 5 2 3 5 7 7 7 11 15 16 19 22 20 19 21 24 27 29 26 32 23 22 26 27 28 27 25 23 24
16 16 16 14 13 12 10 10 9 7 6 5 5 6 7 5 4 6 7 9 9 10 13 17 19 23 25 22 22 26 28 31 28 27 27 21 23 25 26 29 25 21 21
17 17 17 14 13 11 11 11 10 9 7 5 6 6 7 8 6 7 7 10 12 13 12 17 19 20 22 25 25 25 30 33 28 26 22 19 22 27 25 21 27 24 20
16 17 15 14 14 13 12 12 12 11 8 5 6 7 8 9 8 9 8 11 13 15 18 17 21 20 20 17 17 22 29 36 31 24 17 23 25 23 25 30 32 26 8
17 16 16 15 15 13 11 12 12 11 8 6 8 8 9 10 8 10 11 10 13 16 19 21 20 22 21 20 17 19 23 30 31 38 36 32 29 36 34 33 27 19 10
12 14 15 15 14 13 12 12 12 11 10 7 8 10 9 10 9 10 14 13 12 14 18 21 23 25 24 23 23 22 23 26 26 29 31 32 31 37 34 31 29 16 19
10 11 12 12 11 10 10 10 10 10 10 8 8 9 10 10 9 12 17 17 15 14 17 20 22 23 24 23 22 24 25 25 24 25 24 25 27 24 34 30 30 28 12
7 7 8 9 10 10 9 9 9 10 10 8 7 10 11 11 10 10 18 19 18 18 20 18 19 22 24 24 23 24 26 27 25 24 21 18 23 25 29 32 33 30 15
5 4 5 6 7 7 8 9 10 9 8 8 8 9 10 10 9 11 14 18 21 21 25 24 22 21 23 24 22 23 23 20 22 23 22 21 24 28 32 34 29 29 18
7 6 5 5 5 5 5 6 7 7 7 8 9 9 9 10 11 13 15 15 18 21 24 26 25 23 22 23 22 22 20 18 19 22 24 26 28 30 32 33 27 27 21
11 9 6 5 4 4 4 5 6 6 7 6 8 9 8 9 12 15 17 18 16 17 18 22 22 23 23 22 21 23 24 20 22 26 28 29 30 30 31 32 26 25 20
15 13 10 6 4 2 1 2 4 6 7 8 8 7 9 7 11 13 14 17 20 18 17 17 20 22 24 24 23 22 21 23 26 29 30 29 28 28 30 33 29 25 21
13 12 11 10 8 5 2 2 5 6 7 7 10 8 9 9 7 4 4 8 11 15 16 16 17 19 21 21 21 22 23 24 26 28 30 30 31 30 32 34 31 27 20
11 10 10 8 9 9 8 7 4 4 8 10 9 9 8 8 8 8 4 4 5 7 11 17 20 23 26 27 27 27 27 28 29 30 31 33 35 35 34 35 34 33 30
10 8 7 7 7 7 8 9 11 9 7 4 5 10 12 11 9 8 10 10 10 8 12 17 21 25 28 29 30 32 33 34 33 34 35 35 36 35 37 37 35 31 26
9 7 7 7 7 6 6 7 9 10 11 10 7 7 8 10 11 11 8 11 11 14 17 19 22 24 27 29 30 32 32 30 33 34 35 34 36 37 37 37 38 34 30
7 8 7 6 6 7 7 7 7 9 10 11 11 11 9 7 8 10 11 16 19 20 21 21 22 23 25 26 29 30 30 32 33 34 35 35 36 37 34 34 36 36 35
6 6 6 5 4 6 7 7 7 8 9 9 10 10 11 11 8 10 12 17 20 22 22 19 20 20 23 26 27 26 28 31 32 33 35 37 39 39 35 36 38 39 39
7 6 7 6 5 5 6 6 7 8 9 10 10 9 10 12 12 12 13 16 20 23 24 23 23 24 23 23 24 27 29 31 32 34 35 37 39 40 40 40 38 38 36
7 7 6 5 6 7 7 7 8 9 10 11 12 11 10 11 12 14 15 16 18 19 20 22 23 25 24 24 25 25 27 29 32 34 35 35 38 39 40 40 38 37 35
7 8 7 5 5 6 8 9 10 10 11 12 12 12 12 12 12 13 15 16 17 18 18 18 20 22 24 24 24 26 27 30 33 33 33 34 37 37 40 41 40 37 36
7 8 9 9 9 9 9 11 12 11 13 15 15 14 14 15 14 15 16 16 17 18 19 21 21 21 21 21 23 25 26 27 29 31 32 33 36 36 37 39 41 41 38
7 8 8 10 11 11 12 12 13 14 16 19 19 15 15 17 20 19 18 17 19 20 20 20 21 23 22 21 22 23 25 25 27 30 31 34 35 36 38 39 39 39 37
9 9 9 9 10 12 13 14 15 16 17 18 19 20 21 22 23 23 21 21 23 23 22 22 22 22 22 23 23 21 22 23 25 27 30 33 35 35 36 38 39 37 37
Wind_Direction
208 206 211 214 215 216 219 217 229 232 247 273 288 308 334 91 125 141 130 133 141 135 131 130 143 149 147 145 141 139 133 128 115 103 104 119 122 126 124 122 121 119 117
213 210 213 213 214 221 222 223 228 232 244 265 279 292 290 37 166 153 148 148 149 152 148 148 148 157 152 147 144 140 133 130 127 122 119 116 120 130 130 127 123 120 114
214 212 213 215 216 222 222 223 223 232 239 260 264 279 270 289 192 186 164 168 170 164 164 170 166 167 153 152 150 147 145 139 138 138 136 134 130 140 135 132 127 121 111
214 215 216 215 219 221 219 224 227 230 239 255 262 265 261 282 215 198 194 179 182 182 173 174 181 177 166 166 164 159 157 147 144 136 135 139 139 146 143 134 124 124 118
215 215 220 217 218 217 222 223 225 227 227 233 258 256 252 266 246 221 205 189 179 176 181 173 182 183 178 173 167 166 166 152 149 144 145 151 152 156 155 148 133 130 118
216 219 219 215 215 213 212 216 220 223 223 221 240 247 247 242 256 234 227 191 181 178 173 183 180 190 192 181 184 187 186 174 159 159 168 165 170 169 168 157 147 136 119
210 210 212 211 213 212 212 215 219 221 224 236 250 243 233 234 252 233 231 213 193 188 181 181 182 184 191 191 189 193 199 198 201 191 182 182 176 186 179 168 164 159 150
206 204 203 204 208 208 209 213 216 220 220 230 251 248 239 225 250 233 226 224 213 201 192 184 186 180 187 192 187 188 197 201 204 203 207 198 200 194 191 182 172 161 147
179 187 195 201 205 208 210 214 218 224 226 232 243 248 247 227 237 241 217 219 218 211 200 194 196 198 193 199 197 193 192 199 205 210 218 219 214 207 194 182 172 156 149
135 165 180 191 199 205 209 212 215 223 237 247 242 248 246 244 230 234 213 215 217 208 202 200 203 206 202 203 210 199 193 199 201 203 210 212 220 214 214 204 192 177 152
113 145 166 182 195 202 207 212 208 216 238 247 238 239 249 256 247 217 217 220 216 211 211 212 214 213 215 211 205 208 211 208 203 202 199 195 196 200 204 204 206 203 188
102 117 133 155 178 197 211 219 220 212 236 256 249 230 242 251 258 235 217 219 227 220 220 218 214 213 207 209 207 214 221 225 207 198 193 190 194 197 201 202 206 209 211
94 93 98 118 149 179 209 232 226 223 245 257 266 267 245 260 269 253 227 217 222 231 235 230 218 209 204 211 222 225 225 218 205 196 198 198 200 199 200 198 202 209 215
83 76 75 83 89 105 171 229 244 247 264 262 259 277 290 287 284 269 241 229 220 227 236 230 221 215 216 221 219 223 223 217 212 207 202 201 198 196 197 200 197 200 203
80 73 65 61 53 40 30 301 263 247 266 287 291 292 296 290 286 275 272 257 248 230 233 226 215 210 208 209 213 218 216 214 210 209 205 199 196 198 199 199 202 198 199
70 62 61 50 42 37 25 9 345 294 254 247 269 278 270 274 282 279 250 245 259 242 225 225 221 218 218 217 215 216 216 216 215 213 211 207 202 201 202 198 204 204 203
59 44 41 48 35 18 14 5 359 358 353 349 292 265 273 279 270 267 270 258 250 240 224 232 234 230 228 226 225 223 221 220 219 217 216 212 208 204 204 202 203 206 204
43 36 33 21 13 359 354 342 338 338 337 337 330 309 283 272 271 265 254 244 223 227 235 238 238 239 241 237 233 232 228 226 223 220 217 215 210 206 201 204 204 203 203
35 19 22 9 2 344 347 338 328 316 315 320 329 339 338 289 266 260 245 242 243 241 244 248 250 250 250 249 246 241 236 234 231 221 217 216 213 207 204 205 205 207 209
14 359 352 335 336 338 341 334 331 324 317 316 316 322 334 333 310 277 263 254 255 258 260 258 263 266 265 259 253 250 246 240 237 231 225 220 219 216 209 207 208 207 212
10 8 6 0 357 340 319 312 315 314 311 311 309 314 311 308 301 296 285 277 273 270 275 278 281 279 275 270 263 253 246 243 240 234 228 225 222 214 213 214 212 214 212
358 357 4 0 332 323 313 311 308 305 302 303 306 310 312 303 296 294 293 292 288 285 286 287 285 283 281 276 269 260 252 246 242 238 230 226 224 218 214 214 214 213 211
6 355 350 337 318 305 307 306 302 300 300 301 303 306 310 306 302 299 297 298 299 300 299 298 293 289 285 284 279 270 263 257 252 246 234 226 222 218 215 211 210 207 207
9 2 354 346 338 325 310 302 304 312 310 299 295 296 299 299 297 297 297 297 296 296 297 296 297 297 295 291 285 279 272 268 261 254 246 236 226 220 215 213 212 212 209
358 355 348 342 339 336 327 321 316 310 299 290 292 302 299 295 295 293 293 294 295 295 293 293 292 294 297 298 293 287 281 274 266 258 251 238 235 228 222 216 214 209 205
344 343 339 336 332 330 329 327 321 316 313 310 307 301 299 296 292 289 290 293 292 290 292 292 292 292 292 294 295 293 288 280 269 261 255 244 237 226 220 218 217 209 203
Height
783 785 789 792 793 795 798 799 801 802 803 802 801 802 803 803 804 803 804 805 805 806 810 810 814 817 819 821 823 824 828 830 837 857 859 861 863 866 870 872 876 879 881
780 783 786 788 791 794 796 799 800 802 802 802 802 802 803 804 803 804 804 806 807 808 810 813 815 819 822 825 827 829 833 838 836 853 862 864 868 871 873 876 879 882 884
777 780 784 787 789 792 794 797 798 800 802 802 802 801 802 803 804 804 804 806 807 808 810 814 816 818 823 826 829 833 837 842 847 849 860 866 870 874 876 879 881 884 886
774 777 781 783 787 790 791 795 797 798 800 801 801 801 802 802 803 805 805 805 807 809 810 812 817 819 821 824 830 834 838 844 849 853 859 866 869 875 878 879 883 886 888
772 774 777 782 786 787 790 792 795 796 797 798 800 801 802 802 803 804 805 806 806 808 811 812 816 822 824 825 826 832 837 841 849 854 859 864 868 873 875 879 883 887 892
769 771 775 779 782 783 786 789 792 793 795 796 796 797 800 801 802 803 805 805 807 808 810 814 814 820 825 827 829 832 833 836 845 851 857 859 864 868 872 876 879 886 892
763 766 771 775 779 781 784 787 790 792 793 794 796 796 796 798 800 801 804 805 806 807 810 812 815 817 824 827 830 833 836 839 840 841 847 853 858 860 864 873 878 880 884
761 765 769 772 775 778 781 784 788 790 791 791 793 795 795 796 798 800 802 803 805 806 808 811 814 816 820 825 828 830 834 838 841 844 846 849 853 857 863 868 874 880 885
761 764 769 771 774 777 779 783 786 787 789 790 790 792 793 794 795 797 799 802 803 805 807 810 812 815 818 823 827 828 832 836 840 844 847 851 854 858 862 867 873 876 885
763 765 768 770 772 775 778 780 782 784 787 788 787 790 790 793 792 794 796 799 801 803 806 808 810 813 815 818 823 827 830 833 836 840 844 849 852 855 858 863 865 869 873
764 766 768 770 773 775 777 779 779 782 784 785 785 787 789 791 791 790 794 796 798 800 803 805 807 811 813 816 820 824 827 830 834 837 840 844 848 851 855 861 865 867 868
765 766 768 770 773 775 777 778 780 781 782 783 783 784 786 788 789 790 791 794 796 798 800 802 804 808 811 815 817 821 824 827 830 833 837 841 845 848 853 857 862 866 869
766 767 768 770 772 773 775 777 779 780 781 781 783 783 781 784 786 787 788 790 793 796 799 801 803 805 808 811 814 818 820 823 826 830 833 836 840 845 849 855 859 863 867
768 769 769 770 771 772 775 776 777 779 780 781 781 781 783 782 782 785 785 787 789 792 795 797 800 802 805 807 810 813 816 818 820 824 828 832 837 842 846 850 855 859 863
770 772 773 771 772 773 773 774 776 777 779 779 780 780 780 782 783 782 782 784 786 788 791 792 795 797 800 803 806 808 811 814 817 820 823 827 832 837 841 845 849 854 857
772 772 773 774 774 774 774 774 775 775 775 776 778 779 779 780 781 781 781 782 783 785 788 789 790 792 793 796 798 802 804 807 810 814 817 822 825 829 834 839 843 846 849
770 771 773 773 774 775 775 775 774 773 773 774 775 776 778 778 778 778 779 780 780 782 784 784 786 787 789 790 793 794 796 799 803 807 810 813 817 823 827 831 836 841 845
771 772 772 773 773 776 775 775 775 774 774 774 774 774 774 775 775 776 777 778 778 778 779 780 781 782 783 786 787 789 791 794 797 801 804 808 811 814 818 823 827 832 837
772 773 772 773 773 775 773 774 774 774 774 773 773 773 772 771 772 773 775 775 775 774 774 776 777 778 780 781 783 785 787 788 791 794 797 800 804 807 811 815 819 824 829
772 772 772 772 772 774 773 773 773 774 774 772 772 772 771 770 771 771 772 772 772 772 773 772 773 774 775 777 778 779 781 783 785 788 790 793 795 799 803 806 811 815 819
771 772 772 771 772 773 773 773 773 772 772 772 772 771 770 769 769 769 769 769 770 770 770 770 770 771 771 772 773 773 775 776 776 779 781 784 786 789 793 797 802 806 812
770 771 771 772 773 772 772 771 771 771 771 770 770 769 768 767 766 766 766 766 765 765 766 766 765 766 767 767 767 767 767 768 769 770 773 775 777 780 783 788 793 798 803
769 770 770 771 771 771 770 770 769 769 769 768 767 766 765 765 764 763 762 762 761 761 761 760 760 759 760 759 759 760 760 760 761 764 765 767 769 772 773 777 781 787 793
768 769 769 770 769 769 768 767 766 766 766 766 764 763 763 762 761 760 759 758 757 757 756 755 755 754 754 753 752 752 752 753 754 755 758 760 761 765 767 769 771 775 781
767 767 768 768 767 767 766 764 763 763 763 763 761 760 758 758 757 756 755 754 753 752 751 750 750 749 748 748 747 746 745 746 747 748 750 752 754 756 758 761 763 767 772
766 766 766 766 765 765 763 761 761 760 759 758 757 755 754 753 752 751 750 749 748 747 746 744 743 743 743 742 741 740 740 739 740 741 743 744 745 747 750 752 755 760 764